Time,TemperatureF,DewpointF,PressureIn,WindDirection,WindDirectionDegrees,WindSpeedMPH,WindSpeedGustMPH,Humidity,HourlyPrecipIn,Conditions,Clouds,dailyrainin,SoftwareType,DateUTC
2013-07-21 00:01:00,70.0,67.0,29.89,North,9,0.0,1.0,89,0.00,,,2.14,,2013-07-21 04:01:00,
2013-07-21 00:11:00,70.0,68.0,29.89,North,9,0.0,0.0,92,0.00,,,2.14,,2013-07-21 04:11:00,
2013-07-21 00:22:00,70.0,68.0,29.89,North,9,0.0,0.0,92,0.00,,,2.14,,2013-07-21 04:22:00,
2013-07-21 00:32:00,70.0,67.0,29.90,North,9,0.0,0.0,91,0.00,,,2.14,,2013-07-21 04:32:00,
2013-07-21 00:43:00,69.0,67.0,29.90,North,9,0.0,0.0,93,0.00,,,2.14,,2013-07-21 04:43:00,
2013-07-21 00:53:00,69.0,67.0,29.90,North,9,0.0,0.0,93,0.00,,,2.14,,2013-07-21 04:53:00,
2013-07-21 01:02:00,69.0,67.0,29.90,North,9,0.0,0.0,93,0.00,,,2.14,,2013-07-21 05:02:00,
2013-07-21 01:11:00,68.0,66.0,29.90,North,9,0.0,0.0,93,0.00,,,2.14,,2013-07-21 05:11:00,
2013-07-21 01:22:00,68.0,66.0,29.90,North,9,0.0,0.0,93,0.00,,,2.14,,2013-07-21 05:22:00,
2013-07-21 01:32:00,68.0,66.0,29.91,North,9,0.0,1.0,94,0.00,,,2.14,,2013-07-21 05:32:00,
2013-07-21 01:42:00,67.0,66.0,29.91,North,355,0.0,2.0,95,0.00,,,2.14,,2013-07-21 05:42:00,
2013-07-21 01:52:00,67.0,66.0,29.91,North,355,0.0,2.0,95,0.00,,,2.14,,2013-07-21 05:52:00,
2013-07-21 02:01:00,67.0,66.0,29.91,North,355,0.0,2.0,95,0.00,,,2.14,,2013-07-21 06:01:00,
2013-07-21 02:11:00,67.0,65.0,29.91,NNE,12,0.0,3.0,94,0.00,,,2.14,,2013-07-21 06:11:00,
2013-07-21 02:22:00,67.0,65.0,29.91,NNE,12,0.0,3.0,94,0.00,,,2.14,,2013-07-21 06:22:00,
2013-07-21 02:32:00,68.0,66.0,29.91,North,355,0.0,4.0,94,0.00,,,2.14,,2013-07-21 06:32:00,
2013-07-21 02:52:00,68.0,67.0,29.91,North,355,0.0,1.0,95,0.00,,,2.14,,2013-07-21 06:52:00,
2013-07-21 03:01:00,67.0,66.0,29.90,North,355,0.0,0.0,95,0.00,,,2.14,,2013-07-21 07:01:00,
2013-07-21 03:11:00,67.0,66.0,29.91,North,355,0.0,0.0,95,0.00,,,2.14,,2013-07-21 07:11:00,
2013-07-21 03:22:00,67.0,66.0,29.91,North,355,0.0,0.0,95,0.00,,,2.14,,2013-07-21 07:22:00,
2013-07-21 03:32:00,67.0,66.0,29.91,North,355,0.0,0.0,96,0.00,,,2.14,,2013-07-21 07:32:00,
2013-07-21 03:43:00,66.0,65.0,29.91,North,355,0.0,0.0,96,0.00,,,2.14,,2013-07-21 07:43:00,
2013-07-21 03:52:00,66.0,65.0,29.91,North,355,0.0,0.0,96,0.00,,,2.14,,2013-07-21 07:52:00,
2013-07-21 04:02:00,66.0,65.0,29.91,North,355,0.0,3.0,96,0.00,,,2.14,,2013-07-21 08:02:00,
2013-07-21 04:11:00,66.0,65.0,29.92,North,355,0.0,0.0,96,0.00,,,2.14,,2013-07-21 08:11:00,
2013-07-21 04:22:00,66.0,65.0,29.92,North,355,0.0,0.0,96,0.00,,,2.14,,2013-07-21 08:22:00,
2013-07-21 04:33:00,66.0,65.0,29.92,North,355,0.0,0.0,96,0.00,,,2.02,,2013-07-21 08:33:00,
2013-07-21 04:43:00,66.0,65.0,29.92,North,355,0.0,0.0,96,0.00,,,2.02,,2013-07-21 08:43:00,
2013-07-21 04:52:00,66.0,65.0,29.92,North,355,0.0,0.0,96,0.00,,,2.02,,2013-07-21 08:52:00,
2013-07-21 05:02:00,65.0,64.0,29.92,North,355,0.0,1.0,97,0.00,,,2.02,,2013-07-21 09:02:00,
2013-07-21 05:12:00,65.0,64.0,29.92,North,355,0.0,1.0,97,0.00,,,2.02,,2013-07-21 09:12:00,
2013-07-21 05:22:00,65.0,64.0,29.92,North,355,0.0,1.0,97,0.00,,,2.02,,2013-07-21 09:22:00,
2013-07-21 05:32:00,65.0,64.0,29.92,North,355,0.0,0.0,97,0.00,,,0.05,,2013-07-21 09:32:00,
2013-07-21 05:42:00,65.0,64.0,29.92,North,355,0.0,0.0,97,0.00,,,0.05,,2013-07-21 09:42:00,
2013-07-21 05:52:00,65.0,64.0,29.92,North,355,0.0,0.0,97,0.00,,,0.05,,2013-07-21 09:52:00,
2013-07-21 06:02:00,65.0,64.0,29.93,North,355,0.0,1.0,97,0.00,,,0.05,,2013-07-21 10:02:00,
2013-07-21 06:11:00,64.0,63.0,29.93,NNE,19,0.0,2.0,97,0.00,,,0.05,,2013-07-21 10:11:00,
2013-07-21 06:22:00,64.0,63.0,29.93,NNE,19,0.0,2.0,97,0.00,,,0.05,,2013-07-21 10:22:00,
2013-07-21 06:32:00,64.0,63.0,29.94,NNE,19,0.0,2.0,97,0.00,,,0.00,,2013-07-21 10:32:00,
2013-07-21 06:43:00,64.0,63.0,29.94,North,5,0.0,3.0,97,0.00,,,0.00,,2013-07-21 10:43:00,
2013-07-21 06:52:00,64.0,63.0,29.94,North,5,0.0,3.0,97,0.00,,,0.00,,2013-07-21 10:52:00,
2013-07-21 07:02:00,65.0,64.0,29.95,NNE,14,0.0,4.0,97,0.00,,,0.00,,2013-07-21 11:02:00,
2013-07-21 07:12:00,65.0,64.0,29.95,NNE,14,0.0,3.0,97,0.00,,,0.00,,2013-07-21 11:12:00,
2013-07-21 07:22:00,65.0,64.0,29.95,NNE,14,0.0,3.0,97,0.00,,,0.00,,2013-07-21 11:22:00,
2013-07-21 07:33:00,65.0,64.0,29.96,NNE,13,0.0,4.0,97,0.00,,,0.00,,2013-07-21 11:33:00,
2013-07-21 07:43:00,66.0,65.0,29.96,NNE,14,0.0,2.0,96,0.00,,,0.00,,2013-07-21 11:43:00,
2013-07-21 07:52:00,66.0,65.0,29.96,NNE,14,0.0,2.0,96,0.00,,,0.00,,2013-07-21 11:52:00,
2013-07-21 08:01:00,66.0,65.0,29.96,NNE,17,0.0,1.0,96,0.00,,,0.00,,2013-07-21 12:01:00,
2013-07-21 08:11:00,66.0,65.0,29.96,NE,44,0.0,2.0,96,0.00,,,0.00,,2013-07-21 12:11:00,
2013-07-21 08:22:00,66.0,65.0,29.96,NE,44,0.0,2.0,96,0.00,,,0.00,,2013-07-21 12:22:00,
2013-07-21 08:32:00,68.0,66.0,29.96,NE,42,1.0,4.0,94,0.00,,,0.00,,2013-07-21 12:32:00,
2013-07-21 08:43:00,69.0,67.0,29.98,NNE,12,1.0,5.0,92,0.00,,,0.00,,2013-07-21 12:43:00,
2013-07-21 08:53:00,69.0,67.0,29.98,NNE,12,1.0,5.0,92,0.00,,,0.00,,2013-07-21 12:53:00,
2013-07-21 09:02:00,70.0,67.0,29.98,ENE,75,1.0,7.0,89,0.00,,,0.00,,2013-07-21 13:02:00,
2013-07-21 09:12:00,71.0,67.0,29.98,North,11,2.0,7.0,86,0.00,,,0.00,,2013-07-21 13:12:00,
2013-07-21 09:22:00,71.0,67.0,29.98,North,11,2.0,7.0,86,0.00,,,0.00,,2013-07-21 13:22:00,
2013-07-21 09:32:00,72.0,67.0,29.97,NE,38,2.0,7.0,85,0.00,,,0.00,,2013-07-21 13:32:00,
2013-07-21 09:43:00,72.0,66.0,29.98,NE,53,2.0,5.0,82,0.00,,,0.00,,2013-07-21 13:43:00,
2013-07-21 09:52:00,72.0,66.0,29.98,NE,53,2.0,5.0,82,0.00,,,0.00,,2013-07-21 13:52:00,
2013-07-21 10:01:00,72.0,67.0,29.97,ENE,61,1.0,7.0,84,0.00,,,0.00,,2013-07-21 14:01:00,
2013-07-21 10:12:00,73.0,67.0,29.98,ENE,59,1.0,5.0,81,0.00,,,0.00,,2013-07-21 14:12:00,
2013-07-21 10:23:00,73.0,67.0,29.98,ENE,59,1.0,5.0,81,0.00,,,0.00,,2013-07-21 14:23:00,
2013-07-21 10:32:00,74.0,68.0,29.98,NNE,31,2.0,5.0,81,0.00,,,0.00,,2013-07-21 14:32:00,
2013-07-21 10:43:00,75.0,67.0,29.98,ESE,105,0.0,6.0,76,0.00,,,0.00,,2013-07-21 14:43:00,
2013-07-21 10:53:00,75.0,67.0,29.98,ESE,105,0.0,6.0,76,0.00,,,0.00,,2013-07-21 14:53:00,
2013-07-21 11:02:00,76.0,67.0,29.97,East,86,1.0,6.0,74,0.00,,,0.00,,2013-07-21 15:02:00,
2013-07-21 11:11:00,76.0,68.0,29.97,ENE,57,2.0,7.0,76,0.00,,,0.00,,2013-07-21 15:11:00,
2013-07-21 11:22:00,76.0,68.0,29.97,ENE,57,2.0,7.0,76,0.00,,,0.00,,2013-07-21 15:22:00,
2013-07-21 11:32:00,77.0,68.0,29.98,NNE,32,1.0,7.0,73,0.00,,,0.00,,2013-07-21 15:32:00,
2013-07-21 11:43:00,77.0,68.0,29.98,SE,136,0.0,6.0,74,0.00,,,0.00,,2013-07-21 15:43:00,
2013-07-21 11:53:00,77.0,68.0,29.98,SE,136,0.0,6.0,74,0.00,,,0.00,,2013-07-21 15:53:00,
2013-07-21 12:01:00,78.0,68.0,29.98,East,81,1.0,4.0,71,0.00,,,0.00,,2013-07-21 16:01:00,
2013-07-21 12:11:00,80.0,69.0,29.97,North,5,2.0,5.0,69,0.00,,,0.00,,2013-07-21 16:11:00,
2013-07-21 12:22:00,80.0,69.0,29.97,North,5,2.0,5.0,69,0.00,,,0.00,,2013-07-21 16:22:00,
2013-07-21 12:32:00,80.0,68.0,29.97,East,98,0.0,5.0,66,0.00,,,0.00,,2013-07-21 16:32:00,
2013-07-21 12:43:00,80.0,67.0,29.97,ENE,70,1.0,5.0,65,0.00,,,0.00,,2013-07-21 16:43:00,
2013-07-21 12:52:00,80.0,67.0,29.97,ENE,70,1.0,5.0,65,0.00,,,0.00,,2013-07-21 16:52:00,
2013-07-21 13:02:00,81.0,69.0,29.97,ENE,71,0.0,3.0,66,0.00,,,0.00,,2013-07-21 17:02:00,
2013-07-21 13:11:00,82.0,70.0,29.96,ENE,59,1.0,7.0,68,0.00,,,0.00,,2013-07-21 17:11:00,
2013-07-21 13:22:00,82.0,70.0,29.96,ENE,59,1.0,7.0,68,0.00,,,0.00,,2013-07-21 17:22:00,
2013-07-21 13:33:00,83.0,69.0,29.96,NNE,22,0.0,5.0,63,0.00,,,0.00,,2013-07-21 17:33:00,
2013-07-21 13:43:00,83.0,69.0,29.96,NNW,331,0.0,7.0,62,0.00,,,0.00,,2013-07-21 17:43:00,
2013-07-21 13:53:00,83.0,69.0,29.96,NNW,331,0.0,7.0,62,0.00,,,0.00,,2013-07-21 17:53:00,
2013-07-21 14:01:00,83.0,69.0,29.95,NNE,14,1.0,4.0,63,0.00,,,0.00,,2013-07-21 18:01:00,
2013-07-21 14:11:00,83.0,67.0,29.95,ESE,113,2.0,4.0,58,0.00,,,0.00,,2013-07-21 18:11:00,
2013-07-21 14:22:00,83.0,67.0,29.95,ESE,113,2.0,4.0,58,0.00,,,0.00,,2013-07-21 18:22:00,
2013-07-21 14:32:00,82.0,69.0,29.94,SE,130,0.0,5.0,65,0.00,,,0.00,,2013-07-21 18:32:00,
2013-07-21 14:43:00,83.0,70.0,29.95,ENE,71,1.0,5.0,64,0.00,,,0.00,,2013-07-21 18:43:00,
2013-07-21 14:52:00,83.0,70.0,29.95,ENE,71,1.0,5.0,64,0.00,,,0.00,,2013-07-21 18:52:00,
2013-07-21 15:01:00,84.0,68.0,29.95,NE,40,0.0,4.0,58,0.00,,,0.00,,2013-07-21 19:01:00,
2013-07-21 15:22:00,83.0,67.0,29.95,SE,125,1.0,4.0,58,0.00,,,0.00,,2013-07-21 19:22:00,
2013-07-21 15:32:00,84.0,68.0,29.94,ENE,78,1.0,4.0,58,0.00,,,0.00,,2013-07-21 19:32:00,
2013-07-21 15:42:00,84.0,67.0,29.93,East,97,0.0,3.0,57,0.00,,,0.00,,2013-07-21 19:42:00,
2013-07-21 15:52:00,84.0,67.0,29.93,East,97,0.0,3.0,57,0.00,,,0.00,,2013-07-21 19:52:00,
2013-07-21 16:02:00,84.0,70.0,29.93,South,169,0.0,4.0,64,0.00,,,0.00,,2013-07-21 20:02:00,
2013-07-21 16:12:00,85.0,68.0,29.93,ENE,60,1.0,4.0,56,0.00,,,0.00,,2013-07-21 20:12:00,
2013-07-21 16:22:00,85.0,68.0,29.93,ENE,60,1.0,4.0,56,0.00,,,0.00,,2013-07-21 20:22:00,
2013-07-21 16:32:00,85.0,67.0,29.92,NNE,17,1.0,5.0,55,0.00,,,0.00,,2013-07-21 20:32:00,
2013-07-21 16:43:00,85.0,67.0,29.92,ENE,57,2.0,4.0,55,0.00,,,0.00,,2013-07-21 20:43:00,
2013-07-21 16:52:00,85.0,67.0,29.92,ENE,57,2.0,4.0,55,0.00,,,0.00,,2013-07-21 20:52:00,
2013-07-21 17:01:00,84.0,67.0,29.91,NNE,26,0.0,5.0,56,0.00,,,0.00,,2013-07-21 21:01:00,
2013-07-21 17:11:00,84.0,69.0,29.91,East,94,0.0,3.0,60,0.00,,,0.00,,2013-07-21 21:11:00,
2013-07-21 17:22:00,84.0,69.0,29.91,East,94,0.0,3.0,60,0.00,,,0.00,,2013-07-21 21:22:00,
2013-07-21 17:32:00,84.0,67.0,29.90,ESE,111,0.0,4.0,57,0.00,,,0.00,,2013-07-21 21:32:00,
2013-07-21 17:43:00,83.0,68.0,29.89,ESE,111,0.0,3.0,60,0.00,,,0.00,,2013-07-21 21:43:00,
2013-07-21 17:52:00,83.0,68.0,29.89,ESE,111,0.0,3.0,60,0.00,,,0.00,,2013-07-21 21:52:00,
2013-07-21 18:01:00,82.0,69.0,29.89,SE,126,2.0,5.0,66,0.00,,,0.00,,2013-07-21 22:01:00,
2013-07-21 18:11:00,82.0,70.0,29.89,East,94,0.0,2.0,68,0.00,,,0.00,,2013-07-21 22:11:00,
2013-07-21 18:22:00,82.0,70.0,29.89,East,94,0.0,2.0,68,0.00,,,0.00,,2013-07-21 22:22:00,
2013-07-21 18:32:00,81.0,70.0,29.89,East,94,0.0,0.0,69,0.00,,,0.00,,2013-07-21 22:32:00,
2013-07-21 18:43:00,81.0,70.0,29.88,East,94,0.0,3.0,70,0.00,,,0.00,,2013-07-21 22:43:00,
2013-07-21 18:52:00,81.0,70.0,29.88,East,94,0.0,3.0,70,0.00,,,0.00,,2013-07-21 22:52:00,
2013-07-21 19:02:00,81.0,71.0,29.88,ENE,65,0.0,2.0,72,0.00,,,0.00,,2013-07-21 23:02:00,
2013-07-21 19:11:00,81.0,69.0,29.88,ENE,65,0.0,3.0,68,0.00,,,0.00,,2013-07-21 23:11:00,
2013-07-21 19:22:00,81.0,69.0,29.88,ENE,65,0.0,3.0,68,0.00,,,0.00,,2013-07-21 23:22:00,
2013-07-21 19:32:00,81.0,69.0,29.88,ENE,71,0.0,4.0,66,0.00,,,0.00,,2013-07-21 23:32:00,
2013-07-21 19:42:00,81.0,69.0,29.88,ENE,70,0.0,4.0,67,0.00,,,0.00,,2013-07-21 23:42:00,
2013-07-21 19:52:00,81.0,69.0,29.88,ENE,70,0.0,4.0,67,0.00,,,0.00,,2013-07-21 23:52:00,
2013-07-21 20:01:00,80.0,68.0,29.88,ENE,74,0.0,5.0,66,0.00,,,0.00,,2013-07-22 00:01:00,
2013-07-21 20:11:00,80.0,69.0,29.88,ENE,59,1.0,4.0,69,0.00,,,0.00,,2013-07-22 00:11:00,
2013-07-21 20:22:00,80.0,69.0,29.88,ENE,59,1.0,4.0,69,0.00,,,0.00,,2013-07-22 00:22:00,
2013-07-21 20:32:00,79.0,69.0,29.89,NE,55,1.0,3.0,71,0.00,,,0.00,,2013-07-22 00:32:00,
2013-07-21 20:52:00,78.0,68.0,29.89,NE,55,0.0,3.0,71,0.00,,,0.00,,2013-07-22 00:52:00,
2013-07-21 21:02:00,78.0,69.0,29.89,ENE,67,1.0,3.0,73,0.00,,,0.00,,2013-07-22 01:02:00,
2013-07-21 21:11:00,77.0,68.0,29.89,ENE,63,0.0,4.0,75,0.00,,,0.00,,2013-07-22 01:11:00,
2013-07-21 21:22:00,77.0,68.0,29.89,ENE,63,0.0,4.0,75,0.00,,,0.00,,2013-07-22 01:22:00,
2013-07-21 21:32:00,77.0,68.0,29.90,NE,53,1.0,7.0,75,0.00,,,0.00,,2013-07-22 01:32:00,
2013-07-21 21:42:00,76.0,68.0,29.90,East,79,2.0,5.0,76,0.00,,,0.00,,2013-07-22 01:42:00,
2013-07-21 21:52:00,76.0,68.0,29.90,East,79,2.0,5.0,76,0.00,,,0.00,,2013-07-22 01:52:00,
2013-07-21 22:02:00,76.0,68.0,29.90,ENE,69,0.0,4.0,77,0.00,,,0.00,,2013-07-22 02:02:00,
2013-07-21 22:22:00,75.0,68.0,29.91,NNE,26,1.0,5.0,80,0.00,,,0.00,,2013-07-22 02:22:00,
2013-07-21 22:32:00,75.0,68.0,29.91,East,85,1.0,6.0,80,0.00,,,0.00,,2013-07-22 02:32:00,
2013-07-21 22:43:00,74.0,68.0,29.92,East,91,0.0,8.0,81,0.00,,,0.00,,2013-07-22 02:43:00,
2013-07-21 22:52:00,74.0,68.0,29.92,East,91,0.0,8.0,81,0.00,,,0.00,,2013-07-22 02:52:00,
2013-07-21 23:01:00,74.0,68.0,29.92,East,88,2.0,7.0,82,0.00,,,0.00,,2013-07-22 03:01:00,
2013-07-21 23:12:00,74.0,68.0,29.92,ENE,76,1.0,8.0,82,0.00,,,0.00,,2013-07-22 03:12:00,
2013-07-21 23:22:00,74.0,68.0,29.92,ENE,76,1.0,8.0,82,0.00,,,0.00,,2013-07-22 03:22:00,
2013-07-21 23:33:00,74.0,68.0,29.93,ENE,71,2.0,7.0,82,0.00,,,0.00,,2013-07-22 03:33:00,
2013-07-21 23:43:00,73.0,68.0,29.93,East,88,1.0,6.0,83,0.00,,,0.00,,2013-07-22 03:43:00,
2013-07-21 23:53:00,73.0,68.0,29.93,East,88,1.0,6.0,83,0.00,,,0.00,,2013-07-22 03:53:00,